APSTAR-7 (38107 NORAD) Tracking and Keplerian Element Data

This shows tracking and keplerian element data for the satellite.

Feedback or suggestion? Click here.




ElementValue
Catalog38107
NameAPSTAR-7
Epoch Orbit4681
Epoch Day34.81541616
Epoch Year2025
RAAN104.8859
Inclination0.0375
Eccentricity0.0001955
Argument of Perigee216.0072
Mean Anonmoly183.3682
Mean Motion1.00271076
Decay Rate-9.7E-07
L11 38107U 12013A 25034.81541616 -.00000097 00000+0 00000+0 0 9997
L22 38107 0.0375 104.8859 0001955 216.0072 183.3682 1.00271076 46813



Live tracking and technical data element details for APSTAR-7 (NORAD 38107). APSTAR-7 can be tracked NOW for your location showing map with azimuth and elevation plus other details from your city location.







IsCatalogInMostPopularTable: catalog: 38107, numindb: 590
Update: records affected: 1



GetName: 38107 APSTAR-7

Hit Count: updated at: Thu, 15 May 2025 10:00:53 GMT